Weather Roundup
Issued by NWS Springfield, MO

Home | Current Version | Previous Version | Text Only | Print | Product List | Glossary On
Versions: 1 2 3 4 5 6 7 8 9 10 11 12 13 14 15 16 17 18 19 20 21 22 23 24 25 26 27 28 29 30 31 32 33 34 35 36 37 38 39 40 41 42 43 44 45 46 47 48 49 50
000
NZUS99 KSGF 021957
HRRSGF

HOURLY WEATHER
NATIONAL WEATHER SERVICE SPRINGFIELD MO
200 PM CST FRI DEC 02 2016

......SGF CWA......

CITY           SKY/WX    TMP DP  RH WIND       PRES   REMARKS
SPRINGFIELD    SUNNY     55  24  30 E6        30.22F
JOPLIN         PTSUNNY   57  28  33 SE7       30.22F
WEST PLAINS    SUNNY     55  27  34 CALM      30.25R
ROLLA          SUNNY     50  27  40 N6        30.24F
BRANSON        PTSUNNY   55  28  35 E5        30.23F

......SURROUNDING SGF CWA......

CITY           SKY/WX    TMP DP  RH WIND       PRES   REMARKS
CHANUTE        MOSUNNY   57  23  26 E8        30.23S
PARSONS        MOSUNNY   58  25  28 VRB6      30.22F
COFFEYVILLE    SUNNY     58  29  33 E9        30.20F
EMPORIA        MOSUNNY   50  23  34 E7        30.25S
HARRISON AR    CLOUDY    56  29  35 S3        30.22F

......KANSAS AND MISSOURI......

CITY           SKY/WX    TMP DP  RH WIND       PRES   REMARKS
KANSAS CTY INT PTSUNNY   48  27  44 N5        30.27S
SEDALIA        SUNNY     50  25  37 NW5       30.28S
ST JOSEPH      SUNNY     47  27  45 CALM      30.28S
ST LOUIS       MOSUNNY   49  29  46 NW6       30.28R
WICHITA        PTSUNNY   53  22  29 NE3       30.21F
TOPEKA         SUNNY     50  27  40 CALM      30.28S
OLATHE         SUNNY     49  26  41 VRB5      30.27R

......TENNESSEE......

CITY           SKY/WX    TMP DP  RH WIND       PRES   REMARKS
MEMPHIS        NOT AVBL
NASHVILLE      MOSUNNY   58  27  30 NW6       30.23F

......ARKANSAS.......

CITY           SKY/WX    TMP DP  RH WIND       PRES   REMARKS
FAYETTEVILLE   SUNNY     61  31  32 CALM      30.19F
FT SMITH       PTSUNNY   62  30  29 NE7       30.19F
LITTLE ROCK    PTSUNNY   62  28  27 E5        30.22F

......OKLAHOMA.......

CITY           SKY/WX    TMP DP  RH WIND       PRES   REMARKS
TULSA          PTSUNNY   59  34  39 CALM      30.16F
PONCA CITY     SUNNY     57  28  33 NE12      30.17F
MCALESTER      CLOUDY    62  33  33 S6        30.16F
OKLAHOMA CITY  PTSUNNY   54  31  41 E6        30.14F

......IOWA............

CITY           SKY/WX    TMP DP  RH WIND       PRES   REMARKS
DES MOINES     NOT AVBL
QUAD CITIES    CLOUDY    40  27  59 NW12      30.23R WCI  33

......ILLINOIS........

CITY           SKY/WX    TMP DP  RH WIND       PRES   REMARKS
QUINCY         NOT AVBL
CHICAGO        CLOUDY    38  27  64 NW12      30.19R WCI  30




USA.gov is the U.S. government's official web portal to all federal, state and local government web resources and services.